Zurück zum Katalog

THOR ABLESTAR DEB

AktivLEO
NORAD 541·DEBRIS·🇺🇸 United States

Gestartet Jun 29, 1961 von Cape Canaveral Space Force Station

Loading…

Nächste Überflüge (nächste 24 Stunden)

TLE

AktuellSource: Space-Track

Epoche: Sep 14, 2026, 04:45 UTC

1 00541U 61015GA  26257.19814253  .00000116  00000-0  15911-3 0  9996
2 00541  67.2183 191.5672 0079906 209.3372 150.3211 13.86417878284669

Verfolge THOR ABLESTAR DEB in Echtzeit mit AllMySat

Download on the App Store